Hourly Data Report for October 19, 2012

All times are specified in Local Standard Time (LST). Add 1 hour to adjust for Daylight Saving Time where and when it is observed.

ST LEONARD CS
NEW BRUNSWICK

47°09'28.050" N
67°49'55.014" W
245.00 m
810I001
71019
WIY

Download Data

Hourly Data (October 2012)
Hourly Data Report for October 19, 2012
Temp Definition
°C
Dew Point Temp Definition
°C
Rel Hum Definition
%
Wind Dir Definition
10's deg

Wind Spd Definition
km/h
Visibility Definition
km
Stn Press Definition
kPa
Hmdx Definition


Wind Chill Definition


Weather Definition


TIME
00:00 7.1 2.9 75 15 7   99.14     LegendNANA
01:00 7.0 3.7 79 14 7   99.16     LegendNANA
02:00 6.1 4.0 86 13 6   99.16     LegendNANA
03:00 5.5 4.0 90 13 9   99.13     LegendNANA
04:00 6.0 5.0 93 14 9   99.08     LegendNANA
05:00 6.3 5.6 95 14 7   99.12     LegendNANA
06:00 7.0 6.4 96 17 13   99.17     LegendNANA
07:00 7.2 6.8 97 17 13   99.20     LegendNANA
08:00 7.4 7.0 97 18 6   99.26     LegendNANA
09:00 8.4 7.3 93 15 7   99.27     LegendNANA
10:00 8.9 7.5 91 14 9   99.20     LegendNANA
11:00 9.6 7.5 87 16 13   99.28     LegendNANA
12:00 10.5 7.7 83 18 15   99.22     LegendNANA
13:00 11.6 8.0 79 17 13   99.12     LegendNANA
14:00 12.5 8.4 76 17 11   99.11     LegendNANA
15:00 12.9 8.2 73 15 9   99.07     LegendNANA
16:00 13.3 8.3 72 15 7   99.06     LegendNANA
17:00 12.7 8.6 76 15 6   99.03     LegendNANA
18:00 12.1 8.8 80 9 6   98.95     LegendNANA
19:00 12.0 6.6 69 12 9   98.99     LegendNANA
20:00 11.6 5.7 67 12 11   98.90     LegendNANA
21:00 9.9 7.0 82 12 9   98.86     LegendNANA
22:00 9.5 6.5 82 11 9   98.81     LegendNANA
23:00 9.6 6.5 81 10 9   98.72     LegendNANA

Notes on Data Quality.

Legend

  • E = Estimated
  • M = Missing
  • NA = Not Available
  • ‡ = Partner data that is not subject to review by the National Climate Archives
Date modified: